FW7515 Weather Reports


Display with metric or nautical units.
time (UTC)temp
F
wind
direction
speed
MPH
gust
MPH
rain 1hr
in
rain 24hr
in
rain mn
in
humidity
%
barometer
mb
20260505121517 70 210 6.0 14.0 0.00 0.00 0.00 86 1003.7
20260505121034 70 199 5.0 12.0 0.00 0.00 0.00 86 1003.6
20260505120531 70 206 4.0 13.0 0.00 0.00 0.00 86 1003.4
20260505120028 70 210 5.0 12.0 0.00 0.00 0.00 86 1003.4
20260505115525 70 213 5.0 12.0 0.00 0.00 0.00 87 1003.5
20260505115021 70 200 5.0 12.0 0.00 0.00 0.00 87 1003.5
20260505114518 70 208 5.0 9.0 0.00 0.00 0.00 86 1003.5
20260505114035 70 221 4.0 11.0 0.00 0.00 0.00 86 1003.4
20260505113532 70 233 5.0 11.0 0.00 0.00 0.00 86 1003.4
20260505113029 70 216 6.0 13.0 0.00 0.00 0.00 86 1003.4
20260505112525 70 197 4.0 10.0 0.00 0.00 0.00 86 1003.2
20260505112043 70 226 5.0 13.0 0.00 0.00 0.00 86 1003.4
20260505111519 70 224 4.0 9.0 0.00 0.00 0.00 86 1003.3
20260505111016 70 202 5.0 15.0 0.00 0.00 0.00 86 1003.3
20260505110534 70 217 6.0 14.0 0.00 0.00 0.00 86 1003.3
20260505102026 70 210 6.0 13.0 0.00 0.00 0.00 85 1003.2
20260505101523 70 222 6.0 13.0 0.00 0.00 0.00 85 1003.5
20260505101020 70 214 5.0 14.0 0.00 0.00 0.00 85 1003.2
20260505100516 70 216 6.0 13.0 0.00 0.00 0.00 85 1003.2
20260505100033 70 207 5.0 13.0 0.00 0.00 0.00 85 1003.2
20260505095530 70 207 6.0 15.0 0.00 0.00 0.00 85 1003.3
20260505095027 71 212 6.0 13.0 0.00 0.00 0.00 85 1003.4
20260505094524 71 213 6.0 16.0 0.00 0.00 0.00 84 1003.3
20260505094020 71 206 6.0 12.0 0.00 0.00 0.00 84 1003.3
20260505093518 71 220 6.0 12.0 0.00 0.00 0.00 84 1003.3
20260505093035 71 215 5.0 15.0 0.00 0.00 0.00 83 1003.4
20260505092531 71 209 5.0 11.0 0.00 0.00 0.00 83 1003.3
20260505092028 71 216 7.0 16.0 0.00 0.00 0.00 83 1003.4
20260505091526 71 224 6.0 15.0 0.00 0.00 0.00 83 1003.5
20260505091021 71 217 6.0 19.0 0.00 0.00 0.00 82 1003.6
20260505090519 72 206 7.0 18.0 0.00 0.00 0.00 82 1003.7
20260505090035 72 211 5.0 16.0 0.00 0.00 0.00 82 1003.7
20260505085552 72 212 7.0 17.0 0.00 0.00 0.00 81 1003.7
20260505085029 72 213 6.0 14.0 0.00 0.00 0.00 81 1003.7
20260505084526 72 218 5.0 15.0 0.00 0.00 0.00 81 1003.7
20260505084022 72 216 6.0 19.0 0.00 0.00 0.00 80 1003.8
20260505083539 72 225 6.0 15.0 0.00 0.00 0.00 80 1003.7
20260505083015 72 205 5.0 15.0 0.00 0.00 0.00 80 1003.8
20260505082532 72 217 6.0 18.0 0.00 0.00 0.00 80 1003.8
20260505082029 72 211 5.0 13.0 0.00 0.00 0.00 79 1003.8
20260505081546 73 213 7.0 16.0 0.00 0.00 0.00 79 1003.7
20260505081023 73 211 5.0 15.0 0.00 0.00 0.00 78 1003.7
20260505080540 73 205 6.0 13.0 0.00 0.00 0.00 78 1003.7
20260505080037 73 207 6.0 14.0 0.00 0.00 0.00 77 1003.7
20260505075534 73 213 6.0 12.0 0.00 0.00 0.00 77 1003.8
20260505075031 73 216 5.0 12.0 0.00 0.00 0.00 76 1003.8
20260505074527 73 212 5.0 14.0 0.00 0.00 0.00 76 1003.9
20260505074025 73 211 5.0 11.0 0.00 0.00 0.00 76 1004.0
20260505073520 73 218 6.0 18.0 0.00 0.00 0.00 75 1004.1
20260505073018 73 214 6.0 18.0 0.00 0.00 0.00 75 1004.2
20260505072535 73 223 5.0 14.0 0.00 0.00 0.00 75 1004.3
20260505072032 74 209 6.0 11.0 0.00 0.00 0.00 74 1004.5
20260505071530 74 208 6.0 15.0 0.00 0.00 0.00 74 1004.5
20260505071027 74 208 5.0 17.0 0.00 0.00 0.00 74 1004.6
20260505070524 74 223 6.0 15.0 0.00 0.00 0.00 73 1004.7
20260505070021 74 211 6.0 18.0 0.00 0.00 0.00 73 1004.8
20260505065518 74 210 6.0 17.0 0.00 0.00 0.00 72 1004.8
20260505065035 74 210 5.0 15.0 0.00 0.00 0.00 72 1004.9
20260505064612 74 215 6.0 14.0 0.00 0.00 0.00 71 1004.9
20260505064029 74 211 7.0 18.0 0.00 0.00 0.00 71 1005.0
20260505063525 74 211 6.0 13.0 0.00 0.00 0.00 71 1005.0
20260505063042 74 213 5.0 17.0 0.00 0.00 0.00 71 1005.1
20260505062519 75 226 6.0 16.0 0.00 0.00 0.00 70 1005.1
20260505062016 75 210 6.0 18.0 0.00 0.00 0.00 70 1005.1
20260505061533 75 196 5.0 13.0 0.00 0.00 0.00 70 1005.1
20260505061030 75 212 5.0 14.0 0.00 0.00 0.00 70 1005.1
20260505060526 75 214 5.0 13.0 0.00 0.00 0.00 69 1005.0
20260505060044 75 218 4.0 14.0 0.00 0.00 0.00 69 1005.1
20260505055520 75 231 6.0 13.0 0.00 0.00 0.00 69 1005.0
20260505055016 76 211 7.0 18.0 0.00 0.00 0.00 68 1005.1
20260505054534 76 209 6.0 15.0 0.00 0.00 0.00 68 1005.1
20260505054030 76 204 5.0 14.0 0.00 0.00 0.00 68 1005.0
20260505053527 76 215 6.0 15.0 0.00 0.00 0.00 68 1005.0
20260505053024 76 211 5.0 13.0 0.00 0.00 0.00 68 1004.9
20260505052521 76 205 6.0 14.0 0.00 0.00 0.00 67 1005.0
20260505052018 76 203 6.0 11.0 0.00 0.00 0.00 67 1005.0
20260505051535 76 212 6.0 13.0 0.00 0.00 0.00 67 1005.1
20260505051031 76 210 6.0 12.0 0.00 0.00 0.00 67 1005.1
20260505050528 76 213 5.0 13.0 0.00 0.00 0.00 67 1005.1
20260505041516 76 204 5.0 10.0 0.00 0.00 0.00 68 1005.4
20260505041053 76 213 5.0 12.0 0.00 0.00 0.00 69 1005.6
20260505040529 76 225 4.0 11.0 0.00 0.00 0.00 69 1005.4
20260505040026 76 202 4.0 8.0 0.00 0.00 0.00 69 1005.4
20260505035543 76 203 5.0 9.0 0.00 0.00 0.00 69 1005.5
20260505035020 76 211 4.0 9.0 0.00 0.00 0.00 68 1005.4
20260505034516 76 211 4.0 11.0 0.00 0.00 0.00 68 1005.5
20260505034033 76 211 4.0 11.0 0.00 0.00 0.00 68 1005.5
20260505033550 76 209 4.0 10.0 0.00 0.00 0.00 68 1005.4
20260505033026 76 191 4.0 10.0 0.00 0.00 0.00 68 1005.4
20260505032523 76 198 5.0 15.0 0.00 0.00 0.00 68 1005.5
20260505032020 76 185 4.0 11.0 0.00 0.00 0.00 68 1005.4
20260505031517 76 186 4.0 10.0 0.00 0.00 0.00 68 1005.3
20260505031034 76 193 4.0 12.0 0.00 0.00 0.00 68 1005.4
20260505030531 76 192 4.0 10.0 0.00 0.00 0.00 68 1005.5
20260505030027 76 188 5.0 10.0 0.00 0.00 0.00 68 1005.5
20260505025524 76 189 3.0 10.0 0.00 0.00 0.00 68 1005.6
20260505025041 76 192 3.0 9.0 0.00 0.00 0.00 68 1005.6
20260505024517 76 197 3.0 9.0 0.00 0.00 0.00 68 1005.6
20260505024035 76 201 4.0 13.0 0.00 0.00 0.00 68 1005.6
20260505023531 76 195 4.0 8.0 0.00 0.00 0.00 68 1005.4
20260505023028 76 189 4.0 11.0 0.00 0.00 0.00 67 1005.4
20260505022524 76 196 4.0 8.0 0.00 0.00 0.00 67 1005.6
20260505022022 76 205 4.0 8.0 0.00 0.00 0.00 67 1005.5
20260505021538 76 177 4.0 8.0 0.00 0.00 0.00 67 1005.3
20260505021016 76 173 3.0 9.0 0.00 0.00 0.00 67 1005.4
20260505020532 76 183 3.0 6.0 0.00 0.00 0.00 67 1005.4
20260505020029 76 194 3.0 7.0 0.00 0.00 0.00 67 1005.5
20260505015546 76 190 4.0 7.0 0.00 0.00 0.00 67 1005.5
20260505015023 76 199 3.0 6.0 0.00 0.00 0.00 67 1005.5
20260505014520 76 194 4.0 7.0 0.00 0.00 0.00 66 1005.4
20260505014016 77 185 4.0 9.0 0.00 0.00 0.00 66 1005.5
20260505013614 77 198 3.0 10.0 0.00 0.00 0.00 66 1005.5
20260505013030 77 184 3.0 8.0 0.00 0.00 0.00 66 1005.6
20260505012527 77 191 3.0 10.0 0.00 0.00 0.00 66 1005.4
20260505012023 77 192 4.0 7.0 0.00 0.00 0.00 65 1005.5
20260505011520 77 192 4.0 11.0 0.00 0.00 0.00 65 1005.4
20260505011017 77 206 4.0 8.0 0.00 0.00 0.00 64 1005.5
20260505010534 78 186 4.0 9.0 0.00 0.00 0.00 64 1005.4
20260505010031 78 202 5.0 9.0 0.00 0.00 0.00 63 1005.6
20260505005528 78 207 4.0 10.0 0.00 0.00 0.00 63 1005.7
20260505005025 78 193 4.0 8.0 0.00 0.00 0.00 62 1005.8
20260505004522 78 205 4.0 8.0 0.00 0.00 0.00 62 1005.7
20260505004019 79 193 4.0 11.0 0.00 0.00 0.00 61 1005.7
20260505003536 79 203 4.0 11.0 0.00 0.00 0.00 61 1005.6
20260505003053 79 211 6.0 13.0 0.00 0.00 0.00 61 1005.6
20260505002529 80 202 4.0 9.0 0.00 0.00 0.00 60 1005.7
20260505002026 80 212 3.0 7.0 0.00 0.00 0.00 60 1005.8
20260505001522 80 208 4.0 9.0 0.00 0.00 0.00 59 1005.8
20260505001018 81 191 4.0 10.0 0.00 0.00 0.00 59 1005.6
20260505000516 81 200 4.0 10.0 0.00 0.00 0.00 58 1005.7
20260505000033 81 193 5.0 11.0 0.00 0.00 0.00 58 1005.9
20260504235529 81 202 4.0 8.0 0.00 0.00 0.00 57 1006.0
20260504235026 81 208 4.0 10.0 0.00 0.00 0.00 57 1005.9
20260504234521 81 201 4.0 13.0 0.00 0.00 0.00 57 1006.0
20260504234018 81 197 5.0 12.0 0.00 0.00 0.00 57 1006.0
20260504233555 81 200 5.0 11.0 0.00 0.00 0.00 56 1006.0
20260504233031 81 212 4.0 10.0 0.00 0.00 0.00 55 1006.1
20260504232549 82 190 5.0 11.0 0.00 0.00 0.00 55 1006.0
20260504232025 82 200 5.0 12.0 0.00 0.00 0.00 54 1006.1
20260504231522 82 216 5.0 13.0 0.00 0.00 0.00 54 1006.1
20260504231019 82 209 4.0 11.0 0.00 0.00 0.00 54 1006.2
20260504230516 82 197 4.0 13.0 0.00 0.00 0.00 54 1006.1
20260504230053 83 189 6.0 16.0 0.00 0.00 0.00 54 1006.2
20260504225530 83 189 4.0 14.0 0.00 0.00 0.00 54 1006.4
20260504225026 83 207 4.0 12.0 0.00 0.00 0.00 53 1006.6
20260504224523 84 206 4.0 12.0 0.00 0.00 0.00 53 1006.6
20260504224020 84 201 5.0 14.0 0.00 0.00 0.00 53 1006.5
20260504223516 84 205 5.0 13.0 0.00 0.00 0.00 52 1006.5
20260504223033 85 211 5.0 11.0 0.00 0.00 0.00 51 1006.4
20260504222530 85 212 6.0 14.0 0.00 0.00 0.00 51 1006.5
20260504222027 85 199 5.0 12.0 0.00 0.00 0.00 51 1006.4
20260504221603 85 209 5.0 14.0 0.00 0.00 0.00 51 1006.4
20260504221020 84 202 5.0 14.0 0.00 0.00 0.00 51 1006.4
20260504220517 85 202 6.0 12.0 0.00 0.00 0.00 50 1006.7
20260504220034 84 196 5.0 12.0 0.00 0.00 0.00 51 1006.6
20260504215531 85 198 5.0 13.0 0.00 0.00 0.00 51 1006.6
20260504215048 85 212 4.0 10.0 0.00 0.00 0.00 50 1006.7
20260504214524 85 217 5.0 13.0 0.00 0.00 0.00 50 1006.7
20260504214021 85 207 5.0 14.0 0.00 0.00 0.00 50 1006.8
20260504213538 85 217 5.0 11.0 0.00 0.00 0.00 50 1006.8
20260504213055 85 212 5.0 16.0 0.00 0.00 0.00 49 1007.0
20260504212531 86 216 6.0 18.0 0.00 0.00 0.00 49 1007.3
20260504212028 85 212 6.0 13.0 0.00 0.00 0.00 49 1007.3
20260504211525 86 197 6.0 17.0 0.00 0.00 0.00 48 1007.2
20260504211042 86 203 5.0 16.0 0.00 0.00 0.00 48 1007.1
20260504210518 86 210 4.0 11.0 0.00 0.00 0.00 49 1007.3
20260504210015 85 213 5.0 10.0 0.00 0.00 0.00 49 1007.4
20260504205533 85 193 5.0 13.0 0.00 0.00 0.00 50 1007.5
20260504205050 85 206 7.0 14.0 0.00 0.00 0.00 50 1007.6
20260504204526 85 202 6.0 18.0 0.00 0.00 0.00 50 1007.7
20260504204022 85 216 6.0 15.0 0.00 0.00 0.00 50 1007.8
20260504203519 84 218 7.0 16.0 0.00 0.00 0.00 50 1007.8
20260504203016 85 220 6.0 14.0 0.00 0.00 0.00 50 1008.0
20260504202533 85 213 6.0 14.0 0.00 0.00 0.00 50 1008.1
20260504202031 85 208 4.0 8.0 0.00 0.00 0.00 50 1008.1
20260504201527 84 211 5.0 11.0 0.00 0.00 0.00 50 1008.4
20260504201023 83 215 5.0 12.0 0.00 0.00 0.00 51 1008.5
20260504200520 83 187 4.0 20.0 0.00 0.00 0.00 51 1008.6
20260504200017 83 208 6.0 14.0 0.00 0.00 0.00 51 1008.8
20260504195555 84 213 7.0 16.0 0.00 0.00 0.00 50 1009.0
20260504195031 84 203 6.0 14.0 0.00 0.00 0.00 50 1009.1
20260504194527 84 215 6.0 13.0 0.00 0.00 0.00 50 1009.1
20260504194024 84 204 5.0 13.0 0.00 0.00 0.00 49 1009.3
20260504193521 84 216 5.0 10.0 0.00 0.00 0.00 50 1009.2
20260504193017 83 204 5.0 13.0 0.00 0.00 0.00 50 1009.3
20260504192535 83 208 5.0 11.0 0.00 0.00 0.00 50 1009.2
20260504192031 83 222 6.0 17.0 0.00 0.00 0.00 50 1009.2
20260504191528 83 179 5.0 11.0 0.00 0.00 0.00 50 1009.3
20260504191025 83 213 5.0 15.0 0.00 0.00 0.00 50 1009.6
20260504190542 83 198 4.0 11.0 0.00 0.00 0.00 51 1009.5
20260504190019 82 218 4.0 17.0 0.00 0.00 0.00 51 1009.7
20260504185555 82 215 6.0 14.0 0.00 0.00 0.00 51 1009.8
20260504185032 82 211 6.0 17.0 0.00 0.00 0.00 51 1009.9
20260504184529 81 218 6.0 15.0 0.00 0.00 0.00 52 1010.0
20260504184046 81 204 7.0 19.0 0.00 0.00 0.00 51 1010.0
20260504183523 81 222 5.0 15.0 0.00 0.00 0.00 51 1010.1
20260504183019 81 214 6.0 22.0 0.00 0.00 0.00 52 1010.2
20260504182516 81 209 7.0 14.0 0.00 0.00 0.00 51 1010.4
20260504182033 81 212 5.0 15.0 0.00 0.00 0.00 52 1010.3
20260504181610 81 216 7.0 20.0 0.00 0.00 0.00 52 1010.3
20260504181026 80 192 4.0 12.0 0.00 0.00 0.00 52 1010.6
20260504180523 80 210 7.0 15.0 0.00 0.00 0.00 52 1010.4
20260504180019 81 211 6.0 11.0 0.00 0.00 0.00 52 1010.5
20260504175536 80 217 4.0 11.0 0.00 0.00 0.00 53 1010.6
20260504175053 80 219 6.0 17.0 0.00 0.00 0.00 53 1010.6
20260504174530 80 209 6.0 19.0 0.00 0.00 0.00 53 1011.0
20260504174027 80 215 5.0 10.0 0.00 0.00 0.00 53 1011.0
20260504173523 79 207 5.0 14.0 0.00 0.00 0.00 54 1011.0
20260504173019 79 212 6.0 15.0 0.00 0.00 0.00 53 1011.2
20260504172537 79 192 5.0 13.0 0.00 0.00 0.00 53 1011.2
20260504172034 79 205 5.0 18.0 0.00 0.00 0.00 54 1011.2
20260504171531 78 215 6.0 11.0 0.00 0.00 0.00 54 1011.3
20260504171027 78 209 6.0 17.0 0.00 0.00 0.00 54 1011.5
20260504170524 77 215 6.0 14.0 0.00 0.00 0.00 55 1011.5
20260504151031 72 210 6.0 14.0 0.00 0.00 0.00 58 1012.4
20260504150527 72 213 6.0 17.0 0.00 0.00 0.00 59 1012.5
20260504141031 69 205 5.0 16.0 0.00 0.00 0.00 65 1012.6
20260504140528 69 210 6.0 17.0 0.00 0.00 0.00 66 1012.6
20260504130550 65 188 4.0 14.0 0.00 0.00 0.00 70 1012.8